Tracking 19636 objects as of 24-May-2019
HD Live streaming from Space Station
objects crossing your sky now

SL-8 R/B

Track SL-8 R/B now!
10-day predictions
SL-8 R/B is classified as:


NORAD ID: 20775
Int'l Code: 1990-078B
Perigee: 375.0 km
Apogee: 1,200.7 km
Inclination: 82.9 °
Period: 100.5 minutes
Semi major axis: 7158 km
RCS: 8.0846 m2 (large)
Launch date: August 28, 1990
Source: Commonwealth of Independent States (former USSR) (CIS)
Launch site: PLESETSK MISSILE AND SPACE COMPLEX (PKMTR)

Note: This is a ROCKET BODY
aabbcc
Your satellite tracking list
Your tracking list is empty




NASA's NSSDC Master Catalog

Two Line Element Set (TLE):
1 20775U 90078B   19143.16236533  .00001069  00000-0  51859-4 0  9990
2 20775  82.9278 189.0268 0576720 326.0085  30.5363 14.33301455449662
Source of the keplerian elements: AFSPC